This demonstration page uses our WeatherBlox Daily Observations layout. Learn more.

Left ArrowRight Arrow

38.80484, -77.04692

Hourly Observations for August 27, 2022

Temp ( °F °C ) Dew Point ( °F °C ) Humidity (%) Winds ( mph kmh ) Pressure ( in mb ) Visibility ( mi km ) Precip ( " mm )
12:52 am 00:52 Mostly Cloudy 80 26.7 73 22.8 79 79 VRB 3 6 29.97 1015 10 16 0.00 0.00
1:52 am 01:52 Mostly Clear 80 26.7 69 20.6 69 69 N 3 6 29.96 1015 10 16 0.00 0.00
2:52 am 02:52 Mostly Clear 76 24.4 70 21.1 82 82 N 5 7 29.95 1014 10 16 0.00 0.00
3:52 am 03:52 Mostly Clear 76 24.4 67 19.4 74 74 N 8 13 29.95 1014 10 16 0.00 0.00
4:52 am 04:52 Mostly Clear 74 23.3 67 19.4 79 79 N 5 7 29.96 1015 10 16 0.00 0.00
5:52 am 05:52 Partly Cloudy 75 23.9 67 19.4 76 76 NNW 7 11 29.97 1015 10 16 0.00 0.00
6:52 am 06:52 Partly Cloudy 74 23.3 67 19.4 79 79 N 8 13 29.98 1015 10 16 0.00 0.00
7:52 am 07:52 Mostly Cloudy 77 25 68 20 74 74 N 7 11 30.01 1016 10 16 0.00 0.00
8:52 am 08:52 Mostly Cloudy 80 26.7 68 20 67 67 N 7 11 30.01 1016 10 16 0.00 0.00
9:52 am 09:52 Mostly Cloudy 81 27.2 68 20 65 65 NNW 8 13 30.03 1017 10 16 0.00 0.00
10:52 am 10:52 Mostly Cloudy 83 28.3 68 20 61 61 N 7 11 30.04 1017 10 16 0.00 0.00
11:52 am 11:52 Mostly Cloudy 86 30 68 20 55 55 VRB 3 6 30.03 1017 10 16 0.00 0.00
12:52 pm 12:52 Mostly Cloudy 87 30.6 68 20 53 53 E 5 7 30.01 1016 10 16 0.00 0.00
1:52 pm 13:52 Partly Cloudy 88 31.1 68 20 52 52 ESE 3 6 30.00 1016 10 16 0.00 0.00
2:52 pm 14:52 Partly Cloudy 90 32.2 67 19.4 47 47 Calm 29.98 1015 10 16 0.00 0.00
3:52 pm 15:52 Partly Cloudy 91 32.8 66 18.9 44 44 E 3 6 29.97 1015 10 16 0.00 0.00
4:52 pm 16:52 Mostly Cloudy 88 31.1 68 20 52 52 ENE 8 13 29.97 1015 10 16 0.00 0.00
5:52 pm 17:52 Mostly Cloudy 87 30.6 69 20.6 55 55 ESE 12 19 29.98 1015 10 16 0.00 0.00
6:52 pm 18:52 Mostly Cloudy 85 29.4 69 20.6 59 59 ESE 9 15 29.98 1015 10 16 0.00 0.00
7:52 pm 19:52 Mostly Cloudy 83 28.3 69 20.6 63 63 E 6 9 29.99 1016 10 16 0.00 0.00
8:52 pm 20:52 Partly Cloudy 82 27.8 69 20.6 65 65 Calm 30.01 1016 10 16 0.00 0.00
9:52 pm 21:52 Partly Cloudy 81 27.2 68 20 65 65 Calm 30.03 1017 10 16 0.00 0.00
10:52 pm 22:52 Partly Cloudy 79 26.1 70 21.1 74 74 SE 3 6 30.04 1017 10 16 0.00 0.00
11:52 pm 23:52 Mostly Cloudy 80 26.7 68 20 67 67 Calm 30.04 1017 10 16 0.00 0.00

Powered by AerisWeather